This is the latest recevied weather packets stored in our database for station/object NO9B. If no packets are shown the sender has not sent any weather packets the latest 10 day(s).
| Time | Temp. | Humidity | Pressure | Rain* | Wind** | Luminosity | Snow |
|---|---|---|---|---|---|---|---|
| 1788099162 | 23.33° C | 87% | 1014.6 hPa | 0 mm | - | 34 W/m² | - |
| 1788098863 | 22.78° C | 87% | 1014.7 hPa | 0 mm | - | 32 W/m² | - |
| 1788098557 | 22.78° C | 88% | 1014.8 hPa | 0 mm | - | 32 W/m² | - |
| 1788098252 | 22.22° C | 90% | 1014.8 hPa | 0 mm | - | 31 W/m² | - |
| 1788097948 | 22.22° C | 92% | 1014.7 hPa | 0 mm | - | 29 W/m² | - |
| 1788097643 | 22.22° C | 92% | 1014.8 hPa | 0 mm | - | 29 W/m² | - |
| 1788097338 | 21.67° C | 93% | 1014.8 hPa | 0 mm | - | 28 W/m² | - |
| 1788097034 | 21.67° C | 93% | 1014.6 hPa | 0 mm | - | 27 W/m² | - |
| 1788096730 | 21.67° C | 93% | 1014.7 hPa | 0 mm | - | 26 W/m² | - |
| 1788096425 | 21.67° C | 94% | 1014.8 hPa | 0 mm | - | 22 W/m² | - |
| 1788096121 | 21.67° C | 94% | 1014.9 hPa | 0 mm | - | 21 W/m² | - |
| 1788095819 | 21.11° C | 95% | 1014.9 hPa | 0 mm | - | 23 W/m² | - |
| 1788095519 | 21.11° C | 95% | 1014.7 hPa | 0 mm | - | 25 W/m² | - |
| 1788095214 | 21.11° C | 95% | 1015 hPa | 0 mm | - | 24 W/m² | - |
| 1788094909 | 21.11° C | 95% | 1015 hPa | 0 mm | - | 20 W/m² | - |
| 1788094609 | 20.56° C | 95% | 1015.1 hPa | 0 mm | - | 20 W/m² | - |
| 1788094304 | 20.56° C | 95% | 1015.2 hPa | 0 mm | - | 17 W/m² | - |
| 1788094002 | 20.56° C | 95% | 1015.3 hPa | 0 mm | - | 19 W/m² | - |
| 1788093697 | 20.56° C | 95% | 1015.4 hPa | 0.51 mm | - | 21 W/m² | - |
| 1788093394 | 20.56° C | 95% | 1015.4 hPa | 0.51 mm | - | 11 W/m² | - |
| 1788093090 | 20.56° C | 95% | 1015.1 hPa | 0 mm | - | 7 W/m² | - |
| 1788092786 | 20.56° C | 95% | 1015.1 hPa | 0 mm | - | 5 W/m² | - |
| 1788092482 | 20.56° C | 95% | 1015.1 hPa | 0 mm | - | 7 W/m² | - |
| 1788092178 | 20.56° C | 95% | 1015.3 hPa | 0 mm | - | 4 W/m² | - |
| 1788091877 | 20.56° C | 95% | 1015.3 hPa | 0.51 mm | - | 3 W/m² | - |
* Rain latest hour (hover to see other rain measurements)
** Current wind speed in m/s (hover to see current wind gust speed)